| time (UTC) | temp F | wind direction | speed MPH | gust MPH | rain 1hr in | rain 24hr in | rain mn in | humidity % | barometer mb |
| 20260507151036 | 54 | 259 | 3.0 | 6.0 | 0.00 | 0.00 | 0.00 | 57 | 1013.4 |
| 20260507150020 | 55 | 242 | 4.0 | 8.0 | 0.00 | 0.00 | 0.00 | 56 | 1013.4 |
| 20260507145026 | 55 | 245 | 3.0 | 6.0 | 0.00 | 0.00 | 0.00 | 55 | 1013.4 |
| 20260507144028 | 55 | 11 | 3.0 | 5.0 | 0.00 | 0.00 | 0.00 | 58 | 1013.4 |
| 20260507143015 | 55 | 337 | 2.0 | 4.0 | 0.00 | 0.00 | 0.00 | 59 | 1013.4 |
| 20260507142019 | 54 | 260 | 3.0 | 5.0 | 0.00 | 0.00 | 0.00 | 60 | 1013.6 |
| 20260507141023 | 53 | 255 | 3.0 | 5.0 | 0.00 | 0.00 | 0.00 | 64 | 1013.9 |
| 20260507140028 | 53 | 311 | 2.0 | 3.0 | 0.00 | 0.00 | 0.00 | 65 | 1013.9 |
| 20260507135052 | 52 | 272 | 2.0 | 4.0 | 0.00 | 0.00 | 0.00 | 68 | 1014.0 |
| 20260507134018 | 51 | 263 | 3.0 | 6.0 | 0.00 | 0.00 | 0.00 | 71 | 1014.0 |
| 20260507133018 | 50 | 261 | 3.0 | 7.0 | 0.00 | 0.00 | 0.00 | 73 | 1013.9 |
| 20260507132021 | 49 | 232 | 4.0 | 5.0 | 0.00 | 0.00 | 0.00 | 76 | 1013.9 |
| 20260507131025 | 48 | 227 | 3.0 | 6.0 | 0.00 | 0.00 | 0.00 | 80 | 1014.1 |
| 20260507130044 | 47 | 212 | 2.0 | 4.0 | 0.00 | 0.00 | 0.00 | 80 | 1014.1 |
| 20260507125016 | 46 | 225 | 4.0 | 5.0 | 0.00 | 0.00 | 0.00 | 82 | 1014.1 |
| 20260507124041 | 45 | 216 | 3.0 | 4.0 | 0.00 | 0.00 | 0.00 | 82 | 1014.0 |
| 20260507123019 | 44 | 199 | 4.0 | 5.0 | 0.00 | 0.00 | 0.00 | 83 | 1013.9 |
| 20260507122037 | 44 | 199 | 4.0 | 5.0 | 0.00 | 0.00 | 0.00 | 84 | 1013.9 |
| 20260507121015 | 44 | 205 | 4.0 | 5.0 | 0.00 | 0.00 | 0.00 | 84 | 1013.9 |
| 20260507120020 | 43 | 201 | 4.0 | 5.0 | 0.00 | 0.00 | 0.00 | 85 | 1014.1 |
| 20260507115025 | 43 | 206 | 5.0 | 5.0 | 0.00 | 0.00 | 0.00 | 86 | 1014.0 |
| 20260507114029 | 42 | 200 | 4.0 | 5.0 | 0.00 | 0.00 | 0.00 | 87 | 1013.9 |
| 20260507113015 | 41 | 190 | 3.0 | 4.0 | 0.00 | 0.00 | 0.00 | 88 | 1013.9 |
| 20260507112019 | 41 | 203 | 4.0 | 5.0 | 0.00 | 0.00 | 0.00 | 88 | 1013.9 |
| 20260507111024 | 41 | 210 | 3.0 | 3.0 | 0.00 | 0.00 | 0.00 | 89 | 1013.6 |
| 20260507110028 | 40 | 191 | 2.0 | 3.0 | 0.00 | 0.00 | 0.00 | 90 | 1013.6 |
| 20260507105034 | 40 | 202 | 2.0 | 4.0 | 0.00 | 0.00 | 0.00 | 90 | 1013.5 |
| 20260507104018 | 40 | 187 | 3.0 | 4.0 | 0.00 | 0.00 | 0.00 | 90 | 1013.5 |
| 20260507103023 | 39 | 177 | 4.0 | 6.0 | 0.00 | 0.01 | 0.00 | 90 | 1013.6 |
| 20260507102047 | 39 | 180 | 4.0 | 4.0 | 0.00 | 0.01 | 0.00 | 90 | 1013.4 |
| 20260507101031 | 39 | 190 | 4.0 | 6.0 | 0.00 | 0.01 | 0.00 | 90 | 1013.4 |
| 20260507100017 | 39 | 174 | 4.0 | 5.0 | 0.00 | 0.02 | 0.00 | 90 | 1013.4 |
| 20260507095022 | 39 | 176 | 4.0 | 5.0 | 0.00 | 0.03 | 0.00 | 91 | 1013.4 |
| 20260507094046 | 39 | 165 | 4.0 | 5.0 | 0.00 | 0.03 | 0.00 | 91 | 1013.4 |
| 20260507093030 | 39 | 182 | 4.0 | 5.0 | 0.00 | 0.03 | 0.00 | 91 | 1013.4 |
| 20260507092017 | 39 | 180 | 3.0 | 5.0 | 0.00 | 0.04 | 0.00 | 91 | 1013.4 |
| 20260507091022 | 39 | 190 | 3.0 | 4.0 | 0.00 | 0.04 | 0.00 | 91 | 1013.6 |
| 20260507090045 | 39 | 177 | 3.0 | 4.0 | 0.00 | 0.05 | 0.00 | 91 | 1013.6 |
| 20260507085050 | 39 | 173 | 3.0 | 4.0 | 0.00 | 0.06 | 0.00 | 91 | 1013.6 |
| 20260507084036 | 39 | 157 | 3.0 | 4.0 | 0.00 | 0.07 | 0.00 | 90 | 1013.6 |
| 20260507083020 | 40 | 184 | 3.0 | 4.0 | 0.00 | 0.08 | 0.00 | 90 | 1013.6 |
| 20260507082025 | 40 | 189 | 4.0 | 5.0 | 0.00 | 0.10 | 0.00 | 90 | 1013.8 |
| 20260507081029 | 40 | 177 | 4.0 | 5.0 | 0.00 | 0.11 | 0.00 | 90 | 1013.8 |
| 20260507080015 | 40 | 190 | 4.0 | 5.0 | 0.00 | 0.11 | 0.00 | 90 | 1013.8 |
| 20260507075020 | 40 | 176 | 4.0 | 5.0 | 0.00 | 0.12 | 0.00 | 90 | 1013.8 |
| 20260507074024 | 40 | 170 | 4.0 | 5.0 | 0.00 | 0.12 | 0.00 | 90 | 1013.8 |
| 20260507073028 | 40 | 175 | 4.0 | 4.0 | 0.00 | 0.13 | 0.00 | 90 | 1013.9 |
| 20260507072027 | 40 | 168 | 3.0 | 4.0 | 0.00 | 0.13 | 0.00 | 89 | 1013.9 |
| 20260507071039 | 40 | 169 | 3.0 | 3.0 | 0.00 | 0.13 | 0.00 | 89 | 1014.1 |
| 20260507070023 | 40 | 182 | 2.0 | 3.0 | 0.00 | 0.13 | 0.00 | 89 | 1014.1 |
| 20260507065021 | 41 | 175 | 2.0 | 3.0 | 0.00 | 0.13 | 0.00 | 89 | 1014.1 |
| 20260507064019 | 41 | 169 | 2.0 | 3.0 | 0.00 | 0.14 | 0.00 | 88 | 1014.1 |
| 20260507063018 | 41 | 168 | 3.0 | 3.0 | 0.00 | 0.15 | 0.00 | 88 | 1014.3 |
| 20260507062016 | 41 | 183 | 3.0 | 4.0 | 0.00 | 0.15 | 0.00 | 88 | 1014.3 |
| 20260507061026 | 41 | 180 | 3.0 | 3.0 | 0.00 | 0.16 | 0.00 | 88 | 1014.4 |
| 20260507060031 | 42 | 169 | 3.0 | 4.0 | 0.00 | 0.17 | 0.00 | 87 | 1014.4 |
| 20260507055017 | 42 | 170 | 3.0 | 3.0 | 0.00 | 0.18 | 0.00 | 85 | 1014.4 |
| 20260507054102 | 43 | 166 | 3.0 | 4.0 | 0.00 | 0.18 | 0.00 | 85 | 1014.6 |
| 20260507053026 | 43 | 171 | 3.0 | 4.0 | 0.00 | 0.18 | 0.00 | 86 | 1014.8 |
| 20260507052050 | 42 | 184 | 3.0 | 4.0 | 0.00 | 0.19 | 0.00 | 86 | 1014.8 |
| 20260507051016 | 42 | 183 | 3.0 | 3.0 | 0.00 | 0.19 | 0.00 | 86 | 1014.9 |
| 20260507050021 | 42 | 177 | 2.0 | 2.0 | 0.00 | 0.20 | 0.00 | 86 | 1014.9 |
| 20260507045025 | 42 | 160 | 2.0 | 3.0 | 0.00 | 0.20 | 0.00 | 86 | 1014.9 |
| 20260507044029 | 42 | 170 | 2.0 | 3.0 | 0.00 | 0.21 | 0.00 | 85 | 1014.9 |
| 20260507043036 | 43 | 167 | 3.0 | 3.0 | 0.00 | 0.22 | 0.00 | 86 | 1014.9 |
| 20260507042020 | 43 | 165 | 2.0 | 4.0 | 0.00 | 0.22 | 0.00 | 85 | 1015.1 |
| 20260507041024 | 43 | 174 | 2.0 | 3.0 | 0.00 | 0.23 | 0.00 | 84 | 1015.2 |
| 20260507040029 | 42 | 156 | 2.0 | 3.0 | 0.00 | 0.24 | 0.00 | 85 | 1015.3 |
| 20260507035015 | 42 | 171 | 2.0 | 3.0 | 0.00 | 0.25 | 0.25 | 84 | 1015.3 |
| 20260507034019 | 42 | 147 | 2.0 | 3.0 | 0.00 | 0.27 | 0.25 | 85 | 1015.3 |
| 20260507033023 | 43 | 161 | 1.0 | 2.0 | 0.00 | 0.28 | 0.25 | 86 | 1015.3 |
| 20260507032027 | 43 | 0.0 | 0.0 | 0.00 | 0.30 | 0.25 | 86 | 1015.3 | |
| 20260507031032 | 43 | 173 | 1.0 | 2.0 | 0.00 | 0.32 | 0.25 | 86 | 1015.4 |
| 20260507030018 | 43 | 0.0 | 0.0 | 0.00 | 0.35 | 0.25 | 87 | 1015.3 | |
| 20260507025023 | 43 | 185 | 1.0 | 2.0 | 0.00 | 0.38 | 0.25 | 87 | 1015.1 |
| 20260507024047 | 43 | 151 | 1.0 | 2.0 | 0.00 | 0.41 | 0.25 | 88 | 1015.2 |
| 20260507023031 | 43 | 180 | 0.0 | 2.0 | 0.00 | 0.44 | 0.25 | 90 | 1015.3 |
| 20260507022037 | 43 | 0.0 | 0.0 | 0.00 | 0.47 | 0.25 | 88 | 1015.2 | |
| 20260507021047 | 43 | 0.0 | 0.0 | 0.00 | 0.48 | 0.25 | 87 | 1015.1 | |
| 20260507020026 | 43 | 0.0 | 0.0 | 0.00 | 0.50 | 0.25 | 87 | 1015.0 | |
| 20260507015030 | 44 | 0.0 | 0.0 | 0.00 | 0.50 | 0.25 | 85 | 1015.1 | |
| 20260507014016 | 44 | 0.0 | 0.0 | 0.00 | 0.50 | 0.25 | 86 | 1015.2 | |
| 20260507013020 | 44 | 194 | 1.0 | 2.0 | 0.00 | 0.51 | 0.25 | 86 | 1015.2 |
| 20260507012025 | 44 | 203 | 1.0 | 2.0 | 0.00 | 0.53 | 0.25 | 83 | 1015.1 |
| 20260507011023 | 44 | 0.0 | 0.0 | 0.00 | 0.54 | 0.25 | 80 | 1015.1 | |
| 20260507010016 | 45 | 0.0 | 0.0 | 0.00 | 0.55 | 0.25 | 79 | 1015.1 | |
| 20260507005020 | 45 | 0.0 | 0.0 | 0.00 | 0.56 | 0.25 | 77 | 1015.1 | |
| 20260507004038 | 45 | 0.0 | 0.0 | 0.00 | 0.56 | 0.25 | 76 | 1015.1 | |
| 20260507003016 | 45 | 0.0 | 0.0 | 0.00 | 0.56 | 0.25 | 73 | 1015.0 | |
| 20260507002014 | 45 | 23 | 0.0 | 2.0 | 0.00 | 0.58 | 0.25 | 72 | 1015.1 |
| 20260507001019 | 46 | 0.0 | 0.0 | 0.00 | 0.61 | 0.25 | 70 | 1014.9 | |
| 20260507000023 | 46 | 0.0 | 0.0 | 0.00 | 0.65 | 0.25 | 71 | 1014.6 | |
| 20260506235029 | 46 | 0.0 | 0.0 | 0.00 | 0.71 | 0.25 | 70 | 1014.6 | |
| 20260506234032 | 46 | 27 | 1.0 | 2.0 | 0.00 | 0.72 | 0.25 | 71 | 1014.7 |
| 20260506233019 | 46 | 16 | 1.0 | 2.0 | 0.00 | 0.74 | 0.25 | 67 | 1014.8 |
| 20260506232023 | 46 | 9 | 2.0 | 3.0 | 0.00 | 0.75 | 0.25 | 66 | 1014.6 |
| 20260506231027 | 46 | 8 | 2.0 | 4.0 | 0.00 | 0.82 | 0.25 | 65 | 1014.8 |
| 20260506230032 | 47 | 15 | 2.0 | 3.0 | 0.00 | 0.84 | 0.25 | 68 | 1014.5 |
| 20260506225018 | 47 | 7 | 3.0 | 4.0 | 0.00 | 0.86 | 0.25 | 66 | 1014.6 |
| 20260506224022 | 47 | 24 | 3.0 | 4.0 | 0.00 | 0.91 | 0.25 | 67 | 1014.6 |
| 20260506223026 | 48 | 23 | 2.0 | 3.0 | 0.00 | 0.91 | 0.25 | 65 | 1014.6 |
| 20260506222111 | 48 | 10 | 3.0 | 4.0 | 0.00 | 0.91 | 0.25 | 65 | 1014.4 |
| 20260506221057 | 48 | 16 | 2.0 | 4.0 | 0.00 | 0.93 | 0.25 | 66 | 1014.3 |
| 20260506220021 | 49 | 359 | 3.0 | 4.0 | 0.00 | 0.97 | 0.25 | 65 | 1014.3 |
| 20260506215025 | 49 | 359 | 2.0 | 4.0 | 0.00 | 1.02 | 0.25 | 66 | 1014.1 |
| 20260506214050 | 49 | 352 | 2.0 | 4.0 | 0.00 | 1.07 | 0.25 | 67 | 1014.0 |
| 20260506213016 | 49 | 20 | 4.0 | 6.0 | 0.00 | 1.07 | 0.25 | 66 | 1013.9 |
| 20260506212020 | 49 | 11 | 3.0 | 4.0 | 0.00 | 1.10 | 0.25 | 65 | 1013.9 |
| 20260506211045 | 49 | 27 | 3.0 | 5.0 | 0.00 | 1.14 | 0.25 | 62 | 1013.6 |
| 20260506210029 | 50 | 1 | 4.0 | 6.0 | 0.00 | 1.17 | 0.25 | 62 | 1013.6 |
| 20260506205015 | 50 | 18 | 4.0 | 6.0 | 0.00 | 1.20 | 0.25 | 62 | 1013.4 |
| 20260506204039 | 50 | 21 | 4.0 | 6.0 | 0.00 | 1.22 | 0.25 | 61 | 1013.4 |
| 20260506203024 | 51 | 10 | 3.0 | 6.0 | 0.00 | 1.24 | 0.25 | 60 | 1013.4 |
| 20260506202028 | 52 | 10 | 4.0 | 5.0 | 0.00 | 1.25 | 0.25 | 59 | 1013.4 |
| 20260506201032 | 53 | 337 | 3.0 | 6.0 | 0.00 | 1.26 | 0.25 | 59 | 1013.2 |
| 20260506200019 | 54 | 338 | 3.0 | 4.0 | 0.00 | 1.26 | 0.25 | 59 | 1013.4 |
| 20260506195023 | 54 | 9 | 4.0 | 6.0 | 0.00 | 1.26 | 0.25 | 58 | 1013.3 |
| 20260506194027 | 55 | 344 | 3.0 | 4.0 | 0.00 | 1.26 | 0.25 | 60 | 1013.2 |
| 20260506193046 | 55 | 238 | 4.0 | 5.0 | 0.00 | 1.26 | 0.25 | 59 | 1013.2 |
| 20260506192018 | 55 | 21 | 4.0 | 6.0 | 0.00 | 1.26 | 0.25 | 61 | 1013.4 |
| 20260506191022 | 55 | 10 | 4.0 | 5.0 | 0.00 | 1.26 | 0.25 | 62 | 1013.2 |
| 20260506190021 | 55 | 4 | 4.0 | 6.0 | 0.00 | 1.26 | 0.25 | 61 | 1013.1 |
| 20260506185019 | 56 | 318 | 4.0 | 5.0 | 0.00 | 1.26 | 0.25 | 61 | 1013.1 |
| 20260506184017 | 55 | 359 | 5.0 | 7.0 | 0.00 | 1.26 | 0.25 | 62 | 1013.2 |
| 20260506183015 | 56 | 21 | 5.0 | 7.0 | 0.00 | 1.26 | 0.25 | 64 | 1013.4 |
| 20260506182026 | 55 | 3 | 4.0 | 5.0 | 0.00 | 1.26 | 0.25 | 66 | 1013.0 |
| 20260506181029 | 54 | 21 | 3.0 | 4.0 | 0.00 | 1.26 | 0.25 | 68 | 1012.9 |
| 20260506180036 | 53 | 5 | 5.0 | 8.0 | 0.00 | 1.26 | 0.25 | 68 | 1013.1 |
| 20260506175019 | 54 | 10 | 4.0 | 6.0 | 0.00 | 1.26 | 0.25 | 70 | 1013.1 |
| 20260506174023 | 54 | 13 | 4.0 | 6.0 | 0.00 | 1.26 | 0.25 | 70 | 1013.0 |
| 20260506173028 | 54 | 14 | 4.0 | 6.0 | 0.00 | 1.26 | 0.25 | 72 | 1013.0 |
| 20260506172052 | 54 | 317 | 3.0 | 6.0 | 0.00 | 1.26 | 0.25 | 75 | 1012.9 |
| 20260506171018 | 53 | 23 | 4.0 | 5.0 | 0.00 | 1.26 | 0.25 | 75 | 1012.7 |
| 20260506170023 | 52 | 12 | 3.0 | 5.0 | 0.00 | 1.26 | 0.25 | 78 | 1012.9 |
| 20260506165027 | 52 | 281 | 4.0 | 6.0 | 0.00 | 1.26 | 0.25 | 79 | 1012.8 |
| 20260506164032 | 52 | 345 | 3.0 | 6.0 | 0.00 | 1.26 | 0.25 | 80 | 1012.7 |
| 20260506163026 | 53 | 35 | 4.0 | 6.0 | 0.00 | 1.26 | 0.25 | 78 | 1012.6 |
| 20260506162050 | 53 | 275 | 3.0 | 5.0 | 0.00 | 1.26 | 0.25 | 78 | 1012.3 |
| 20260506161037 | 53 | 256 | 4.0 | 5.0 | 0.00 | 1.26 | 0.25 | 77 | 1012.2 |
| 20260506160021 | 54 | 6 | 3.0 | 5.0 | 0.00 | 1.26 | 0.25 | 78 | 1012.1 |
| 20260506155045 | 53 | 38 | 3.0 | 4.0 | 0.00 | 1.26 | 0.25 | 81 | 1012.0 |
| 20260506154049 | 52 | 22 | 3.0 | 4.0 | 0.00 | 1.26 | 0.25 | 81 | 1011.9 |
| 20260506153016 | 52 | 252 | 3.0 | 5.0 | 0.00 | 1.26 | 0.25 | 80 | 1011.8 |
| 20260506152040 | 52 | 298 | 2.0 | 4.0 | 0.00 | 1.26 | 0.25 | 82 | 1011.6 |